Regional Weather Roundup
Issued by NWS

Home | Current Version | Previous Version | Text Only | Print | Product List | Glossary Off
Versions: 1 2 3 4 5 6 7 8 9 10 11 12 13 14 15 16 17 18 19 20 21 22 23 24 25 26 27 28 29 30 31 32 33 34 35 36 37 38 39 40 41 42 43 44 45 46 47 48 49 50

000
ASUS43 KMPX 201901
RWRMN
WEATHER ROUNDUP FOR MINNESOTA
NATIONAL WEATHER SERVICE TWIN CITIES/CHANHASSEN MN
100 PM CST SAT DEC 20 2014


NOTE: "FAIR" INDICATES FEW OR NO CLOUDS BELOW 12,000 FEET WITH NO
SIGNIFICANT WEATHER AND/OR OBSTRUCTIONS TO VISIBILITY. N/A MEANS
CURRENT SKY AND/OR WEATHER CONDITIONS ARE NOT AVAILABLE.

MNZ060>063-068>070-202000-
   Twin Cities Metro

CITY           SKY/WX    TMP DP  RH WIND       PRES   REMARKS
TWIN CITIES    CLOUDY    32  26  78 S10       30.13F WCI  24
ST PAUL        CLOUDY    32  28  85 S12       30.15F WCI  23
CRYSTAL        CLOUDY    33  27  78 S8        30.11F HAZE    WCI  26
BLAINE         CLOUDY    34  28  80 S9        30.12F WCI  26
LAKEVILLE      CLOUDY    28  27  93 S8        30.13F WCI  20
EDEN PRAIRIE   CLOUDY    32  26  78 S12       30.11F WCI  23
SOUTH ST PAUL  CLOUDY    32  29  90 S5        30.13F FOG     WCI  28
LAKE ELMO      CLOUDY    32  30  93 S7        30.14F FOG     WCI  26
$$
MNZ001>005-007-008-013>017-022>024-027-028-202000-
   Northwest Minnesota

CITY           SKY/WX    TMP DP  RH WIND       PRES   REMARKS
BEMIDJI          N/A     29  28  96 S6        30.00S FOG     WCI  23
HALLOCK        CLOUDY    28  27  93 CALM      29.96F FOG
ROSEAU         CLOUDY    30  25  80 S14       29.97F WCI  20
WARROAD        CLOUDY    28  25  86 S7        29.98F WCI  21
THIEF RVR FALL CLOUDY    28  28 100 S9        29.98F WCI  20
CROOKSTON      CLOUDY    28  28 100 SW13      30.00F FOG     WCI  18
FOSSTON        CLOUDY    27  27 100 S12       29.99F FOG     WCI  16
DETROIT LAKES  CLOUDY    30  30 100 S9        30.00F FOG     WCI  22
MOORHEAD       CLOUDY    30  30 100 S10       30.01F FOG     WCI  21
PARK RAPIDS    CLOUDY    30  27  88 S14       30.00F FOG     WCI  19
MAHNOMEN       CLOUDY    28  28  96 S12       29.99F FOG     WCI  18
$$
MNZ006-009>011-018-025>026-202000-
   North Central Minnesota

CITY           SKY/WX    TMP DP  RH WIND       PRES   REMARKS
BAUDETTE       CLOUDY    31  28  89 S9        29.98F WCI  23
FLAG ISLAND    CLOUDY    28  27  93 S8        29.97F FOG     WCI  20
INTL FALLS     CLOUDY    29  27  92 S5        30.01F FOG     WCI  24
WASKISH        CLOUDY    30  30 100 CALM      30.00F FOG
BIG FORK       MIX PCPN  30  28  93 S7        30.01F WCI  23
LONGVILLE      CLOUDY    28  28 100 S8        30.02F WCI  20
GRAND RAPIDS   CLOUDY    28  28 100 S10       30.02F WCI  19
CRANE LAKE     LGT SNOW  28  27  93 CALM      30.06F
ORR            CLOUDY    28  25  86 S6        30.01F FOG     WCI  22
COOK           CLOUDY    28  27  93 S5        30.04F FOG     WCI  23
WALKER         CLOUDY    28  27  93 S7        30.01F FOG     WCI  21
$$
MNZ012-019>021-037-202000-
   Northeast Minnesota

CITY           SKY/WX    TMP DP  RH WIND       PRES   REMARKS
DULUTH         CLOUDY    29  25  85 S10       30.07F FOG     WCI  20
ELY            CLOUDY    28  27  93 S6        30.05F WCI  22
HIBBING        CLOUDY    30  26  85 S8        30.04F WCI  22
EVELETH        LGT SNOW  30  28  93 S7        30.05F WCI  23
DULUTH HARBOR  CLOUDY    32  28  86 CALM      30.13F
TWO HARBORS    CLOUDY    32  27  80 S7        30.09F WCI  26
SILVER BAY     CLOUDY    30  27  86 S6        30.09S FOG     WCI  24
GRAND MARAIS     N/A     33  29  85 S9        30.13F WCI  25
G MARAIS ARPRT CLOUDY    27  23  86 S6        30.08F FOG     WCI  20
$$
MNZ029>031-032-039>041-046>048-054>057-064-202000-
   West Central Minnesota

CITY           SKY/WX    TMP DP  RH WIND       PRES   REMARKS
FERGUS FALLS   CLOUDY    30  28  93 S14       30.04F FOG     WCI  20
WHEATON        CLOUDY    28  27  93 S12       30.04S FOG     WCI  18
MORRIS         SUNNY     32  28  86 S12       30.01F FOG     WCI  23
ALEXANDRIA     CLOUDY    30  28  92 S13       30.03F FOG     WCI  20
ELBOW LAKE     CLOUDY    30  28  93 S12       30.01F FOG     WCI  21
WADENA         CLOUDY    28  27  93 S12G17    30.02S FOG     WCI  18
GLENWOOD       CLOUDY    30  28  93 S13       30.03F FOG     WCI  20
APPLETON       CLOUDY    34  28  80 S8        30.03F HAZE    WCI  27
BENSON         CLOUDY    32  28  86 SW10      30.04F FOG     WCI  24
ORTONVILLE     CLOUDY    32  27  80 S9        30.02F HAZE    WCI  24
MADISON        SUNNY     36  34  93 S7        30.03F FOG
WILLMAR        CLOUDY    34  28  80 S3        30.07F HAZE
$$
MNZ033>034-036-042>043-049>051-058-059-202000-
   Central Minnesota

CITY           SKY/WX    TMP DP  RH WIND       PRES   REMARKS
ST CLOUD       CLOUDY    32  26  78 S10       30.08F WCI  24
SAUK CENTRE    CLOUDY    30  28  92 S13       30.05F FOG     WCI  20
PAYNESVILLE    CLOUDY    28  26  95 SE12      30.07F WCI  18
AITKIN         CLOUDY    32  27  80 S7        30.04F WCI  26
PINE RIVER     CLOUDY    28  28 100 S8        30.06F FOG     WCI  20
BRAINERD       CLOUDY    29  26  89 S16       30.05F FOG     WCI  17
STAPLES        CLOUDY    28  27  93 S13       30.03F FOG     WCI  18
LONG PRAIRIE   CLOUDY    30  28  93 S13       30.04F FOG     WCI  20
LITTLE FALLS   CLOUDY    30  27  86 S7        30.07F WCI  23
LITCHFIELD     CLOUDY    32  30  93 SE5       30.08F WCI  27
BUFFALO        CLOUDY    31  26  83 S9        30.12F WCI  23
MAPLE LAKE     CLOUDY    32  29  88 S8        30.10F WCI  25
$$
MNZ037-044-045-052-053-202000-
   East Central Minnesota

CITY           SKY/WX    TMP DP  RH WIND       PRES   REMARKS
PRINCETON      CLOUDY    32  28  86 S8        30.10F WCI  25
MORA           CLOUDY    32  28  86 S8        30.11F WCI  25
CAMBRIDGE      CLOUDY    34  27  75 S7        30.09F HAZE    WCI  28
RUSH CITY      CLOUDY    31  27  86 S5        30.11F WCI  26
MOOSE LAKE     CLOUDY    32  28  86 S7        30.07F FOG     WCI  26
HINCKLEY       CLOUDY    32  30  93 S7        30.10F FOG     WCI  26
CLOQUET        CLOUDY    30  27  86 S3        30.07F FOG
MCGREGOR       CLOUDY    30  30 100 S10       30.07S WCI  21
$$
MNZ071>073-080-081-089-090-097-098-202000-
   Southwest Minnesota

CITY           SKY/WX    TMP DP  RH WIND       PRES   REMARKS
MONTEVIDEO     CLOUDY    34  30  86 SW9       30.05F FOG     WCI  26
GRANITE FALLS  CLOUDY    32  29  89 S10       30.07S WCI  24
CANBY          CLOUDY    33  31  90 S8        30.04F FOG     WCI  26
MARSHALL       CLOUDY    32  27  80 SW16      30.05S WCI  21
REDWOOD FALLS  CLOUDY    32  28  85 S14       30.07F WCI  22
OLIVIA         CLOUDY    34  30  86 S10       30.06F WCI  26
PIPESTONE      CLOUDY    30  28  93 SW5       30.01F FOG     WCI  25
WINDOM         CLOUDY    30  28  93 S9        30.05F WCI  22
WORTHINGTON    CLOUDY    30  28  93 S13       30.06F WCI  20
JACKSON        CLOUDY    32  28  86 S10       30.07F WCI  24
TRACY          CLOUDY    32  30  93 S10       30.04F FOG     WCI  24
SLAYTON        CLOUDY    30  30  99 S7        30.04F FOG     WCI  23
$$
MNZ065>067-074>077-082>085-091>093-202000-
   South Central Minnesota

CITY           SKY/WX    TMP DP  RH WIND       PRES   REMARKS
MANKATO        CLOUDY    30  23  74 S10       30.12F WCI  21
NEW ULM        CLOUDY    30  28  93 S9        30.09F WCI  22
ST JAMES       CLOUDY    32  28  86 S9        30.10F WCI  24
FAIRMONT       CLOUDY    30  27  86 S8        30.10F WCI  23
GLENCOE        CLOUDY    32  29  90 S9        30.10F WCI  24
FARIBAULT      CLOUDY    30  28  93 S10       30.13F WCI  21
OWATONNA       CLOUDY    30  27  86 S9        30.12F WCI  22
WASECA         CLOUDY    32  30  93 S10       30.13F WCI  24
ALBERT LEA     CLOUDY    30  30 100 S8        30.12F FOG     WCI  23
$$
MNZ078>079-086>088-094>096-202000-
   Southeast Minnesota

CITY           SKY/WX    TMP DP  RH WIND       PRES   REMARKS
ROCHESTER      FOG       30  28  92 S10       30.14F VSB 3/4 WCI  21
RED WING       CLOUDY    32  28  86 S5        30.15F FOG     WCI  27
STANTON        CLOUDY    32  29  88 S7        30.12F FOG     WCI  26
DODGE CENTER   CLOUDY    30  30 100 S12       30.12F FOG     WCI  21
WINONA         CLOUDY    34  28  80 CALM      30.19S HAZE
AUSTIN         CLOUDY    30  28  93 S6        30.12F FOG     WCI  24
PRESTON        FOG       29  28  97 S9        30.15F VSB 1   WCI  20
$$
ABBREVIATIONS USED IN REMARKS
   TC - TEMPERATURES IN CELSIUS
  WCI - WIND CHILL INDEX
   HX - HEAT INDEX
  VSB - VISIBILITY
$$


USA.gov is the U.S. government's official web portal to all federal, state and local government web resources and services.